Погода в Шойне

Поиск расширенной информации на нашем сайте:

Полезная информация:

Новости сайта



02.01.2020
Опубликован Долгосрочный прогноз погоды по городам России и ближнего зарубежья на январь 2020 года.
Карты: Прогноз на январь и февраль 2020 года, Сравнение прогнозируемой аномалии приземной температуры воздуха на январь 2020 года по разным моделям.




Погода в Шойне - сегодня

Время (UTC), дата Ветер
(°,м/с) 
Видим.   Явления Облачность Т
(°С)
Тd
(°С)
f(%) Тe
(°С)
Pmin
(гПа)
dP
(гПа)
Po
(мм)
O2
(г/м3)
Тmin Tmax R s Состояние
почвы
15 29.11.20 230 (ЮЗ) 11-16{18}  20000 м  позёмок  10/10 600 м 
[Sc]
-0.1 -1.4 91 -5  1028.4  0.2  771  311    +0.6       
18 29.11.20 230 (ЮЗ) 12-17{18}  20000 м  позёмок  10/10 600 м 
[Sc]
-0.1 -1.7 89 -6  1027.6  -0.9  770  311           
21 29.11.20 230 (ЮЗ) 12-18{18}  20000 м  позёмок  10/10 600 м 
[Sc]
+0.1 -1.2 91 -5  1027.1  -0.4  770  310           
00 30.11.20 220 (ЮЗ) 11-16{19}  20000 м  позёмок{снег}  10/10 600 м 
[Sc]
-0.4 -0.4 100 -6  1026.7  -0.4  770  311           
03 30.11.20 220 (ЮЗ) 11-16{17}  20000 м  позёмок  10/10 600 м 
[Sc]
-0.3 -1.6 91 -6  1025.9  -0.9  769  310  -0.5    0.0  мокрый или
старый снег
10-40% 
06 30.11.20 230 (ЮЗ) 11-16{17}  20000 м    10/10 300 м кучево-дожд. 
[Cb calv]
+0 -1.6 89 -5  1025  -0.8  768  310           
09 30.11.20 230 (ЮЗ) 11-15{17}  20000 м    10/10 300 м кучево-дожд. 
[Cb calv]
+0.3 -1.3 89 -5  1024.9  -0.1  768  309           
12 30.11.20 230 (ЮЗ) 12-16{17}  20000 м    10/10 300 м кучево-дожд. 
[Cb calv]
+0.8 -0.9 88 -4  1024.3  -0.6  768  309           
15 30.11.20 210 (ЮЗ) 10-15{16}  20000 м    10/10 300 м 
[St]
+0.1 -0.2 98 -5  1023.3  -1  767  309    +0.9       
18 30.11.20 210 (ЮЗ) 11-14{16}  20000 м    10/10 300 м 
[St]
-0.3 -0.3 100 -6  1022.2  -1.2  766  309           
21 30.11.20 190 (Ю) 10-13{15}  20000 м    10/10 300 м кучево-дожд. 
[Cb calv]
-0.2 -0.2 100 -5  1021.1  -1.1  765  309           
00 01.12.20 200 (Ю) 10-14{15}  20000 м    10/10 300 м 
[St]
-0.2 -0.4 99 -5  1019  -2.1  764  308           
03 01.12.20 210 (ЮЗ) 10-14{15}  20000 м    10/10 300 м 
[St]
+0.4 +0 97 -4  1017.2  -1.7  762  307  -0.6      мокрый или
старый снег
10-40% 
06 01.12.20 210 (ЮЗ) 10-15{16}  20000 м    10/10 300 м 
[St]
+0.6 +0.6 100 -4  1015.8  -1.5  761  306           
09 01.12.20 200 (Ю) 10-12{15}  4000 м  слаб. снег  10/10 300 м 
[Frnb|Ns]
+0.3 +0.3 100 -4  1014.6  -1.1  761  306           
12 01.12.20 210 (ЮЗ) 11-15{18}  20000 м  позёмок{ливн. осадки, снег}  10/6 300 м кучево-дожд., средняя 
[Cb calv|Ac trans]
+0.6 +0.6 100 -4  1013.2  -1.4  759  305           
15 01.12.20 220 (ЮЗ) 12-17{18}  20000 м  {ливн. осадки}  9/8 300 м кучево-дожд., средняя 
[Cb calv|Ac trans]
+1.5 +0.2 91 -4  1012.1  -1.1  759  304    +1.5     
21 01.12.20 240 (ЮЗ) 11-15{17}  20000 м    10/10 600 м 
[Sc]
+1.4 -0.6 87 -3  1013.4  0.8  760  305           
00 02.12.20 250 (З) 10-14{17}  20000 м    10/10 600 м 
[Sc]
+0.6 +0.5 99 -4  1014.3  0.8  760  306           
03 02.12.20 240 (ЮЗ) 10-12{14}  20000 м    9/5 600 м верхняя 
[Sc|Ci fib]
+1 -0.1 92 -4  1014.9  0.6  761  305  +0.3      мокрый или
старый снег
10-40% 
06 02.12.20 280 (З) 10-12{15}  20000 м    10/10 600 м 
[Sc]
+1.7 -0.5 85 -3  1016.4  1.6  762  305           
09 02.12.20 280 (З) 10-13{14}  20000 м    8/3 600 м средняя, верхняя 
[Sc|Ac trans|Ci fib]
+1.1 +1 99 -4  1018.8  2.3  764  306           
12 02.12.20 220 (ЮЗ) 7-10{14}  20000 м    4/3 600 м средняя 
[Sc|Ac trans]
-0.6 -0.6 100 -5  1020.5  1.8  765  309           
15 02.12.20 220 (ЮЗ) 6{10}  20000 м    8/8 600 м 
[Sc]
+0.3 +0.1 99 -3  1020.4  -0.1  765  308    +1.9       
18 02.12.20 230 (ЮЗ) 7{10}  20000 м    9/9 600 м 
[Sc]
+1.2 +0.4 94 -2  1019.8  -0.6  764  307           
Время (UTC), дата Ветер
(°,м/с) 
Видим.   Явления Облачность Т
(°С)
Тd
(°С)
f(%) Тe
(°С)
Pmin
(гПа)
dP
(гПа)
Po
(мм)
O2
(г/м3)
Тmin Tmax R s Состояние
почвы

Для получения пояснительной информации подведите курсор к названию столбца.

ПОГОДА в Шойне - архив

Всё, что Вы хотите узнать о погоде в Шойне - удобно и подробно!

Выберите нужную дату (начиная с 1 января 2019* года) и нажмите кнопку "Найти".
Будут отображены архивные сводки погоды по пункту Шойна, начиная с указанной даты.


Отображать данные в формате CSV (для использования в таблицах Excel)


Внимание! Наш архив погоды предназначен исключительно для личного некоммерческого использования в познавательных целях. Если Вам необходимы официальные справки о состоянии погоды (для производственных, юридических, коммерческих и т.п. целей), обращайтесь в органы Росгидромета.

*Примечание: данная дата относится к архиву по метеостанциям СССР (Россия, СНГ, Балтия).
Архив по метеостанциям Зарубежной Европы и Азии (кроме Китая) хранится 10 дней, по другим регионам земного шара (Китай, Африка, Америка, Австралия, Океания) - 1 день.

Шойна - район местоположения метеостанции


Название, широта, долгота, высота метеостанции:
Шойна 67.9°ш. 44.1°д. 8 м над ур. моря [Российская Федерация]

Дополнительная информация

В oтличие oт бoльшинства пoгoдных сайтoв мы публикуем пoдрoбную метеoинфoрмацию в детальнoм прoфессиoнальнoм фoрмате.

Характеристики температуры и влажнoсти вoздуха измеряются на высoте 2 м в тени вдали oт зданий и деревьев.
Скoрoсть ветра измеряется на высoте 10 м (на урoвне рoста челoвека скoрoсть ветра ниже в 1.5-2 раза). Если метеoстанция нахoдится в гoрoде или в лесу, тo скoрoсть ветра занижена на 2-4 м/с пo сравнению с oткрытым местoм. Скoрoсть ветра над акватoриями крупных рек и oзёр, а также на вершинах хoлмoв на 2-5 м/с выше, чем в oбычных услoвиях.
Атмoсфернoе давление в разных тoчках местнoсти мoжет значительнo oтличаться oт давления на метеoстанции, в зависимoсти oт услoвий рельефа (при пoдъёме на 10 м давление пoнижается примернo на 1 мм рт.ст.).